{"data":{"norad_id":67158,"intl_designator":"2025-301AB","name":"KUIPER-00261","alt_names":[],"object_type":"PAYLOAD","status":"ACTIVE","operator":null,"country":"US","launch_date":"2025-12-16","launch_site_code":"AFETR","launch_vehicle":null,"mission":null,"orbit_class":"UNKNOWN","rcs_meters":null,"size_class":null,"mass_kg":null,"dimensions":null,"purposes":[],"wikipedia_slug":null,"has_3d_model":false,"image_url":null,"decayed_at":null,"tle_current":{"epoch":"2026-05-25T00:42:59.936832Z","epoch_age_seconds":69931,"freshness":"FRESH","line1":"1 67158U 25301AB  26145.02986038 -.00000247  00000+0 -33568-5 0  9996","line2":"2 67158  51.9009  93.0790 0000633  81.0019 279.1015 14.79936868 24969","mean_motion":14.79936868,"eccentricity":6.33e-5,"inclination_deg":51.9009,"raan_deg":93.079,"arg_perigee_deg":81.0019,"mean_anomaly_deg":279.1015,"bstar":-3.3568e-6,"rev_number":2496,"period_min":97.301447861491,"perigee_km":629.07983397957,"apogee_km":629.9670037886,"semimajor_km":7007.6604188841,"source":"CELESTRAK","updated_at":"2026-05-25T13:38:06.780037Z"}}}